Location: Boursonne
(49.2024°N, 3.0468°E)
Time: 22:49:38
(UTC+00:00)

CZ-2C R/B - Pass Details

Date: 03 March 2021
Orbit: 783 x 871 km, 98.2° (Epoch: 14 April)

Event Time Altitude Azimuth Distance (km) Brightness Sun altitude
Rises 18:00:14 0° 22° (NNE) 3,434 5.6 -5.0°
Reaches altitude 10° 18:03:00 10° 34° (NE) 2,480 4.8 -5.5°
Maximum altitude 18:07:39 28° 92° (E) 1,539 3.5 -6.2°
Drops below altitude 10° 18:12:11 10° 150° (SSE) 2,415 4.8 -7.0°
Sets 18:14:50 0° 162° (SSE) 3,328 5.6 -7.4°
